|
NORAD ID: 14192 Int'l Code: 1983-070E
Perigee: 3,048.9 km
Apogee: 36,881.7 km
Inclination: 67.5 °
Period: 708.9 minutes
Semi major axis: 26336 km
Launch date: July 8, 1983
Source: Commonwealth of Independent States (former USSR) (CIS)
Note: This is SATELLITE DEBRIS
Two Line Element Set (TLE):
1 14192U 83070E 13137.94780766 .00000905 00000-0 00000+0 0 5873
2 14192 067.4639 223.8713 6423216 040.4995 001.1484 02.03128472142560
Source:
NASA's NSSDC Master Catalog entry for COSMOS 1481 DEB
|